Latest Coastal Weather Observations for Norah Head

IDN60701

Issued at 8:25 am EDT Friday 24 October 2014 (issued every 10 minutes, with the page automatically refreshed every 10 minutes)

About coastal observations | Map of coastal stations | Coastal observations for NSW | Marine services | Other Formats
Station Details ID: 061366 Name: NORAH HEAD AWS Lat: -33.28 Lon: 151.58 Height: 18.8 m
Data from the previous 72 hours. | See also: Recent months at Norah Head
Date/Time
EDT
Temp

°C
Wind Pressure Rain
since 9am
mm
Weather Cloud Vis
km
Sea
Height
m
Swell
Dir
 
Speed
knots
Gust
knots
hPa Trend Height
m
Period
s
Dir
24/08:00am 19.3 S 8 10 1019.6 - 0.0 - - - - - - -
24/07:30am 18.7 N 1 5 1019.7 - 0.0 - - - - - - -
24/07:00am 18.4 S 2 6 1019.8 - 0.0 - - - - - - -
24/06:30am 18.2 WNW 2 5 1019.7 - 0.0 - - - - - - -
24/06:00am 18.2 W 3 5 1019.8 - 0.0 - - - - - - -
24/05:30am 18.6 WSW 6 10 1020.0 - 0.0 - - - - - - -
24/05:00am 18.9 SW 6 9 1020.1 - 0.0 - - - - - - -
24/04:30am 18.8 SSW 3 4 1019.5 - 0.0 - - - - - - -
24/04:00am 18.7 SSW 3 4 1018.9 - 0.0 - - - - - - -
24/03:30am 18.8 SSE 5 6 1018.3 - 0.0 - - - - - - -
24/03:00am 19.1 S 8 10 1018.8 - 0.0 - - - - - - -
24/02:30am 19.1 S 9 11 1019.2 - 0.0 - - - - - - -
24/02:00am 19.1 S 7 9 1019.5 - 0.0 - - - - - - -
24/01:30am 19.0 S 5 7 1019.5 - 0.0 - - - - - - -
24/01:00am 18.9 SSW 5 7 1019.7 - 0.0 - - - - - - -
24/12:30am 18.7 S 2 2 1019.7 - 0.0 - - - - - - -
24/12:00am 18.4 SE 0 0 1019.8 - 0.0 - - - - - - -
 
Date/Time
EDT
Temp

°C
Wind Pressure Rain
since 9am
mm
Weather Cloud Vis
km
Sea
Height
m
Swell
Dir
 
Speed
knots
Gust
knots
hPa Trend Height
m
Period
s
Dir
23/11:30pm 18.9 WNW 2 5 1019.9 - 0.0 - - - - - - -
23/11:00pm 18.8 ENE 4 5 1019.7 - 0.0 - - - - - - -
23/10:30pm 19.0 SE 5 6 1019.5 - 0.0 - - - - - - -
23/10:00pm 19.1 S 3 4 1019.6 - 0.0 - - - - - - -
23/09:30pm 19.3 SW 4 5 1019.6 - 0.0 - - - - - - -
23/09:00pm 19.3 SW 4 5 1019.3 - 0.0 - - - - - - -
23/08:30pm 19.5 CALM 0 0 1018.9 - 0.0 - - - - - - -
23/08:00pm 19.8 E 1 2 1018.4 - 0.0 - - - - - - -
23/07:30pm 19.9 CALM 0 2 1018.3 - 0.0 - - - - - - -
23/07:00pm 20.0 S 1 3 1017.7 - 0.0 - - - - - - -
23/06:30pm 20.1 SSW 3 4 1017.5 - 0.0 - - - - - - -
23/06:00pm 20.9 SSE 3 4 1016.9 - 0.0 - - - - - - -
23/05:30pm 21.2 E 2 3 1016.4 - 0.0 - - - - - - -
23/05:00pm 21.1 NNE 3 4 1016.3 - 0.0 - - - - - - -
23/04:30pm 21.9 NE 5 7 1016.1 - 0.0 - - - - - - -
23/04:00pm 22.2 ENE 4 6 1015.8 - 0.0 - - - - - - -
23/03:30pm 22.4 ENE 4 7 1015.8 - 0.0 - - - - - - -
23/03:00pm 22.1 E 7 9 1015.7 - 0.0 - - - - - - -
23/02:30pm 22.4 E 6 7 1016.0 - 0.0 - - - - - - -
23/02:00pm 22.9 ENE 5 7 1016.4 - 0.0 - - - - - - -
23/01:30pm 24.4 NE 5 7 1016.6 - 0.0 - - - - - - -
23/01:00pm 23.1 NE 5 6 1016.8 - 0.0 - - - - - - -
23/12:30pm 24.1 NE 6 7 1016.9 - 0.0 - - - - - - -
23/12:00pm 23.8 NE 5 6 1017.2 - 0.0 - - - - - - -
23/11:30am 22.8 NE 4 5 1017.6 - 0.0 - - - - - - -
23/11:00am 23.1 NE 6 7 1017.8 - 0.0 - - - - - - -
23/10:30am 21.8 NE 6 7 1017.9 - 0.0 - - - - - - -
23/10:00am 20.9 NE 5 6 1017.9 - 0.0 - - - - - - -
23/09:30am 19.9 NNE 4 5 1018.0 - 0.0 - - - - - - -
23/09:00am 19.8 N 3 4 1018.2 - 0.0 - - - - - - -
23/08:30am 18.7 N 3 4 1018.4 - 0.0 - - - - - - -
23/08:00am 17.2 NNW 3 4 1018.2 - 0.0 - - - - - - -
23/07:30am 16.1 NW 3 4 1018.2 - 0.0 - - - - - - -
23/07:00am 15.7 N 5 7 1017.8 - 0.0 - - - - - - -
23/06:30am 15.0 N 3 5 1017.8 - 0.0 - - - - - - -
23/06:00am 14.7 NNW 1 2 1017.9 - 0.0 - - - - - - -
23/05:30am 14.8 CALM 0 0 1017.9 - 0.0 - - - - - - -
23/05:00am 14.5 CALM 0 0 1017.7 - 0.0 - - - - - - -
23/04:30am 14.8 CALM 0 0 1017.8 - 0.0 - - - - - - -
23/04:00am 14.9 WNW 3 3 1017.6 - 0.0 - - - - - - -
23/03:30am 15.5 NNW 5 6 1017.7 - 0.0 - - - - - - -
23/03:00am 16.1 NNW 6 7 1018.1 - 0.0 - - - - - - -
23/02:30am 16.3 N 8 10 1018.3 - 0.0 - - - - - - -
23/02:00am 16.5 N 8 9 1018.6 - 0.0 - - - - - - -
23/01:30am 16.6 N 8 10 1018.9 - 0.0 - - - - - - -
23/01:00am 16.6 N 8 9 1019.4 - 0.0 - - - - - - -
23/12:30am 16.9 N 10 13 1019.5 - 0.0 - - - - - - -
23/12:00am 17.4 NNE 14 16 1019.7 - 0.0 - - - - - - -
 
Date/Time
EDT
Temp

°C
Wind Pressure Rain
since 9am
mm
Weather Cloud Vis
km
Sea
Height
m
Swell
Dir
 
Speed
knots
Gust
knots
hPa Trend Height
m
Period
s
Dir
22/11:30pm 17.5 NNE 15 17 1019.9 - 0.0 - - - - - - -
22/11:00pm 17.7 NNE 16 20 1020.0 - 0.0 - - - - - - -
22/10:30pm 17.9 NNE 19 23 1020.1 - 0.0 - - - - - - -
22/10:00pm 18.1 NNE 18 21 1020.4 - 0.0 - - - - - - -
22/09:30pm 18.3 NNE 19 22 1020.3 - 0.0 - - - - - - -
22/09:00pm 18.4 NNE 19 22 1020.3 - 0.0 - - - - - - -
22/08:30pm 18.5 NNE 20 23 1020.2 - 0.0 - - - - - - -
22/08:00pm 18.5 NNE 19 23 1020.0 - 0.0 - - - - - - -
22/07:30pm 18.6 NNE 18 22 1020.0 - 0.0 - - - - - - -
22/07:00pm 18.6 NNE 18 22 1020.0 - 0.0 - - - - - - -
22/06:30pm 18.7 NNE 18 21 1020.1 - 0.0 - - - - - - -
22/06:00pm 18.8 NNE 17 21 1020.3 - 0.0 - - - - - - -
22/05:30pm 19.1 NNE 17 20 1020.6 - 0.0 - - - - - - -
22/05:00pm 19.1 NNE 16 20 1020.8 - 0.0 - - - - - - -
22/04:30pm 19.4 NE 17 20 1021.0 - 0.0 - - - - - - -
22/04:00pm 19.3 NE 16 18 1021.4 - 0.0 - - - - - - -
22/03:30pm 20.0 NE 15 17 1021.9 - 0.0 - - - - - - -
22/03:00pm 20.7 NE 13 15 1022.5 - 0.0 - - - - - - -
22/02:30pm 22.3 NE 11 13 1023.0 - 0.0 - - - - - - -
22/02:00pm 21.4 ENE 11 12 1023.6 - 0.0 - - - - - - -
22/01:30pm 21.4 ENE 10 12 1024.0 - 0.0 - - - - - - -
22/01:00pm 22.3 ENE 10 11 1024.7 - 0.0 - - - - - - -
22/12:30pm 22.8 NE 8 9 1025.2 - 0.0 - - - - - - -
22/12:00pm 22.7 NE 9 11 1025.6 - 0.0 - - - - - - -
22/11:30am 19.9 NNE 10 12 1026.1 - 0.0 - - - - - - -
22/11:00am 20.2 NNE 9 10 1026.4 - 0.0 - - - - - - -
22/10:30am 20.9 NE 9 10 1026.7 - 0.0 - - - - - - -
22/10:00am 20.0 NNE 3 5 1027.0 - 0.0 - - - - - - -
22/09:30am 18.8 N 2 3 1027.2 - 0.0 - - - - - - -
22/09:00am 17.0 N 3 5 1027.2 - 0.0 - - - - - - -
22/08:30am 17.0 NNW 3 4 1027.3 - 0.0 - - - - - - -
22/08:00am 16.1 CALM 0 3 1027.3 - 0.0 - - - - - - -
22/07:30am 15.6 CALM 0 0 1027.2 - 0.0 - - - - - - -
22/07:00am 15.0 CALM 0 0 1027.1 - 0.0 - - - - - - -
22/06:30am 14.6 CALM 0 3 1027.0 - 0.0 - - - - - - -
22/06:00am 14.8 NW 3 6 1026.9 - 0.0 - - - - - - -
22/05:30am 14.9 W 2 4 1026.9 - 0.0 - - - - - - -
22/05:00am 15.1 W 2 4 1026.9 - 0.0 - - - - - - -
22/04:30am 15.2 W 2 5 1027.1 - 0.0 - - - - - - -
22/04:00am 15.0 W 5 7 1027.3 - 0.0 - - - - - - -
22/03:30am 14.9 W 5 7 1027.7 - 0.0 - - - - - - -
22/03:00am 15.4 W 3 5 1028.1 - 0.0 - - - - - - -
22/02:30am 16.2 ESE 2 4 1028.4 - 0.0 - - - - - - -
22/02:00am 16.0 ENE 6 8 1028.8 - 0.0 - - - - - - -
22/01:30am 16.2 ENE 6 8 1029.3 - 0.0 - - - - - - -
22/01:00am 15.9 ENE 6 8 1029.7 - 0.0 - - - - - - -
22/12:30am 16.0 NNE 10 13 1030.2 - 0.0 - - - - - - -
22/12:00am 16.1 ENE 8 10 1030.4 - 0.0 - - - - - - -
 
Date/Time
EDT
Temp

°C
Wind Pressure Rain
since 9am
mm
Weather Cloud Vis
km
Sea
Height
m
Swell
Dir
 
Speed
knots
Gust
knots
hPa Trend Height
m
Period
s
Dir
21/11:30pm 16.2 ENE 6 8 1030.6 - 0.0 - - - - - - -
21/11:00pm 16.5 ENE 9 11 1030.7 - 0.0 - - - - - - -
21/10:30pm 16.5 ENE 11 13 1030.9 - 0.0 - - - - - - -
21/10:00pm 16.5 ENE 10 11 1031.0 - 0.0 - - - - - - -
21/09:30pm 16.5 E 9 12 1031.2 - 0.0 - - - - - - -
21/09:00pm 16.3 E 8 10 1031.1 - 0.0 - - - - - - -
21/08:30pm 16.1 E 9 12 1030.8 - 0.0 - - - - - - -
21/08:00pm 16.2 E 10 12 1030.6 - 0.0 - - - - - - -
21/07:30pm 16.4 E 11 14 1030.3 - 0.0 - - - - - - -
21/07:00pm 16.7 E 11 14 1030.1 - 0.0 - - - - - - -
21/06:30pm 16.8 ENE 8 11 1030.2 - 0.0 - - - - - - -
21/06:00pm 16.9 E 8 10 1030.0 - 0.0 - - - - - - -
21/05:30pm 17.1 E 6 10 1030.0 - 0.0 - - - - - - -
21/05:00pm 17.1 ENE 7 9 1029.9 - 0.0 - - - - - - -
21/04:30pm 17.3 E 9 11 1029.9 - 0.0 - - - - - - -
21/04:00pm 17.5 E 10 12 1030.0 - 0.0 - - - - - - -
21/03:30pm 17.6 E 11 14 1030.1 - 0.0 - - - - - - -
21/03:00pm 18.0 E 10 14 1030.6 - 0.0 - - - - - - -
21/02:30pm 18.1 E 9 12 1030.9 - 0.0 - - - - - - -
21/02:00pm 18.5 E 7 9 1031.4 - 0.0 - - - - - - -
21/01:30pm 18.2 E 7 9 1031.8 - 0.0 - - - - - - -
21/01:00pm 17.7 E 9 14 1032.1 - 0.0 - - - - - - -
21/12:30pm 17.6 ESE 9 12 1032.3 - 0.0 - - - - - - -
21/12:00pm 17.8 ESE 8 12 1032.5 - 0.0 - - - - - - -
21/11:30am 17.4 E 10 11 1032.6 - 0.0 - - - - - - -
21/11:00am 17.2 E 11 13 1032.8 - 0.0 - - - - - - -
21/10:30am 17.3 E 10 13 1032.7 - 0.0 - - - - - - -
21/10:00am 17.3 E 9 13 1032.8 - 0.0 - - - - - - -
21/09:30am 17.2 ESE 10 12 1032.6 - 0.0 - - - - - - -
21/09:00am 16.8 ESE 11 14 1032.3 - 1.2 - - - - - - -
21/08:30am 16.7 SE 12 15 1031.9 - 1.2 - - - - - - -

Other Formats:

Comma delimited format used in spreadsheet applications
http://www.bom.gov.au/fwo/IDN60701/IDN60701.95770.axf

JavaScript Object Notation format (JSON) in row-major order
http://www.bom.gov.au/fwo/IDN60701/IDN60701.95770.json